Location: Cabeza de los Veneras
(40.2000°N, 5.2000°W)
Time: 05:16:56
(UTC+00:00)

BlueWalker 3 - Pass Details

Date: 28 June 2024
Orbit: 480 x 491 km, 53.2° (Epoch: 21 July)

Event Time Altitude Azimuth Distance (km) Brightness Sun altitude
Rises 00:28:00 0° 312° (NW) 2,539 6.1 -26.5°
Reaches altitude 10° 00:30:11 10° 316° (NW) 1,657 5.1 -26.5°
Enters shadow 00:32:17 31° 328° (NNW) 871 3.5 -26.5°
